Theta_e
306 305 305 305 305 306 307 309 308 308 308 307 308 308 308 307 303 304 306 305 303 302 298 297 298 298 299 297 299 300 299 302 305 307 303 298 298 298 298 298 298 299 302 302 301
306 306 305 305 305 306 307 308 307 307 307 307 307 308 307 306 306 303 306 304 303 297 298 299 297 297 296 296 297 298 298 297 302 300 299 298 298 299 298 297 297 298 298 299 301
305 305 305 305 305 305 305 307 306 306 306 307 307 307 306 306 302 302 304 304 301 297 298 299 298 297 296 296 297 298 298 299 298 298 299 299 298 297 298 297 297 296 297 298 299
303 303 304 305 306 306 307 306 306 306 306 306 307 305 304 304 299 302 303 302 299 297 298 299 297 297 297 298 298 297 297 298 298 298 300 299 299 299 298 298 297 296 297 298 299
303 302 303 305 305 305 305 306 306 307 306 307 307 304 303 300 302 302 296 298 297 297 299 298 298 298 298 298 298 298 298 299 299 299 299 299 299 298 298 298 298 297 298 298 299
303 301 301 304 304 305 306 306 306 306 306 305 302 303 302 297 302 296 297 296 297 298 299 299 299 299 299 299 299 298 299 299 299 299 299 299 299 298 298 298 297 298 298 298 298
301 302 303 301 302 303 302 303 304 304 301 302 300 303 300 300 300 296 298 297 298 297 298 299 299 299 299 298 298 299 300 299 299 299 299 299 299 298 298 297 298 298 299 299 300
300 303 302 302 302 301 300 299 301 300 303 302 302 303 302 302 297 297 298 298 298 299 300 299 300 299 299 298 298 298 298 298 299 299 299 299 301 300 298 298 299 299 299 299 300
301 302 302 302 301 300 296 301 299 300 301 300 298 300 295 295 295 296 297 297 298 299 300 300 300 298 297 296 292 291 295 300 300 299 299 300 301 299 299 300 300 300 299 300 300
302 302 303 303 301 299 296 301 297 297 298 298 294 293 293 293 295 297 297 298 298 298 298 298 294 294 291 293 296 298 301 301 301 300 300 300 300 300 300 299 299 299 298 299 300
302 302 303 303 302 299 295 299 293 292 296 293 294 294 293 295 295 296 297 298 296 296 296 295 292 292 297 296 298 298 300 301 300 299 300 300 301 300 300 300 296 294 293 294 295
301 302 303 303 302 299 295 296 295 294 294 296 294 293 295 294 294 295 297 297 293 294 295 291 291 297 297 298 298 297 299 299 299 299 301 301 300 299 298 295 295 294 293 293 293
301 302 303 303 302 300 295 296 296 296 294 294 293 294 294 294 294 295 297 297 292 290 296 298 298 298 299 299 297 295 298 297 301 301 298 298 296 300 298 296 294 293 293 293 292
301 302 304 302 300 300 297 295 294 296 287 292 292 292 294 294 296 296 297 299 298 294 297 296 297 299 298 297 298 297 299 300 300 298 295 298 297 298 294 295 293 292 291 292 291
302 302 304 301 300 297 296 294 295 295 295 292 291 293 293 295 295 297 298 297 299 294 291 294 298 299 296 299 298 299 299 298 297 293 300 292 298 296 293 293 292 291 290 291 291
303 302 304 302 299 295 294 295 295 293 290 287 290 293 292 294 295 295 296 296 297 296 295 293 295 297 298 298 298 297 296 292 294 292 290 290 299 295 294 293 292 290 290 290 290
303 304 303 301 298 294 296 294 295 294 287 288 290 293 292 294 296 295 297 297 295 291 288 291 292 294 295 297 296 293 288 287 291 290 293 285 295 292 294 291 290 290 290 289 290
302 305 301 296 294 295 294 296 292 284 283 290 292 292 294 294 294 293 297 296 296 293 284 290 296 290 295 298 296 292 289 288 292 294 296 289 292 296 295 292 290 289 289 289 289
303 298 295 292 294 295 297 298 297 286 291 292 291 289 286 293 291 289 292 294 298 289 289 292 291 294 294 297 295 293 290 295 297 284 287 290 289 291 293 291 290 289 289 289 289
303 298 294 294 295 294 297 301 292 291 292 293 291 290 288 286 292 286 290 294 298 294 289 290 294 288 291 296 293 291 292 292 289 293 291 288 282 290 293 290 289 288 288 288 289
302 299 294 293 296 295 300 294 290 290 292 294 292 288 292 288 290 285 290 294 296 296 294 290 291 291 294 289 290 293 293 289 290 298 299 298 292 293 292 290 289 288 287 287 288
299 303 293 294 296 292 295 292 291 292 292 293 293 292 291 291 290 283 289 290 293 289 293 293 291 293 290 294 296 293 295 296 298 294 298 299 295 293 292 289 288 287 286 287 288
298 294 293 295 303 297 291 291 292 293 293 294 293 294 292 289 290 293 292 294 294 292 292 294 286 288 293 294 295 295 297 295 295 298 297 297 298 294 291 289 287 286 286 286 287
297 300 294 294 295 297 293 293 293 292 293 293 294 294 294 290 291 288 295 295 294 293 296 295 294 288 290 290 288 293 296 295 293 289 294 297 296 295 291 289 287 286 286 286 285
299 300 296 296 294 294 294 291 293 293 293 293 293 295 294 291 291 291 294 294 293 292 292 288 283 290 291 291 289 291 294 295 289 291 295 296 293 295 292 289 287 286 286 286 285
299 298 295 295 295 296 297 294 293 294 294 294 292 293 294 291 294 292 294 294 292 291 292 290 283 284 283 292 295 294 298 294 293 289 288 290 294 294 293 290 287 286 285 285 285
296 296 300 298 297 296 296 296 294 293 293 294 293 294 294 294 291 291 292 291 291 291 291 286 281 278 285 288 288 291 292 291 289 287 290 290 292 291 292 291 287 285 285 284 284
Wind_Speed
10 12 14 16 15 13 14 15 16 16 16 16 16 16 17 11 16 21 16 12 15 20 20 22 24 21 7 4 5 2 3 2 3 3 3 3 6 3 4 6 4 4 4 11 34
12 13 14 16 16 15 16 16 16 16 16 16 16 16 15 7 5 15 11 14 18 22 20 18 10 14 4 4 4 4 2 4 3 2 3 4 4 5 5 9 5 13 12 15 16
12 11 13 16 16 14 15 16 17 17 16 16 17 17 14 3 3 5 13 15 16 20 14 11 12 4 5 4 5 3 3 0 3 3 4 5 6 4 4 7 12 8 13 17 16
13 15 16 15 15 16 16 17 16 15 14 15 14 13 6 3 3 9 13 15 14 15 15 11 6 5 4 4 4 4 3 3 6 4 6 5 5 7 12 19 7 10 14 14 17
15 14 15 16 17 16 15 14 14 14 13 13 13 10 3 6 2 11 15 13 13 11 12 4 6 3 3 4 6 1 3 6 8 16 13 11 14 12 19 17 16 15 14 14 16
14 14 16 18 16 16 15 15 13 12 11 10 8 4 3 5 5 12 15 10 10 8 5 6 3 1 1 2 1 4 9 12 10 10 8 9 7 1 3 3 9 8 11 12 12
14 13 15 15 16 16 16 15 13 10 8 8 6 6 8 3 5 14 12 8 13 6 3 1 1 4 1 4 3 4 8 6 4 2 5 4 8 8 14 11 10 13 12 12 13
11 15 14 16 17 17 18 14 8 6 4 6 7 4 3 4 9 11 14 7 10 6 3 3 2 3 3 4 6 6 2 6 3 10 5 5 11 4 11 7 14 13 11 15 20
13 13 14 16 17 19 17 6 4 4 4 7 3 3 1 5 11 12 11 9 9 9 7 5 4 3 4 3 4 7 4 12 9 2 4 6 17 6 11 19 24 21 19 17 19
12 12 13 16 16 19 13 1 3 5 3 3 4 5 5 6 12 11 10 8 3 6 4 7 5 4 4 5 2 10 11 8 16 4 8 18 26 22 18 17 18 13 14 15 15
11 11 12 14 15 17 13 1 6 4 11 4 3 1 4 14 3 6 8 5 5 7 5 5 6 1 4 4 5 7 14 21 22 19 16 17 20 20 19 14 5 7 10 13 13
10 11 10 12 13 14 9 6 2 1 1 1 2 2 3 7 4 4 13 5 6 4 6 6 0 4 4 6 6 8 16 19 15 4 14 18 22 26 7 5 4 6 10 14 16
7 8 9 10 9 8 14 6 2 0 2 3 2 2 4 4 3 6 7 2 4 4 4 2 3 6 3 7 4 4 13 7 18 22 18 12 7 4 2 3 11 15 14 14 14
7 6 8 10 3 5 3 5 3 1 5 5 3 2 3 3 2 4 6 2 2 1 5 5 4 4 6 5 1 11 6 17 21 12 3 5 5 2 5 6 17 19 17 17 17
6 4 4 6 3 3 3 4 1 0 4 3 6 5 6 4 5 1 6 4 2 2 6 5 3 5 5 6 3 10 20 19 15 4 5 6 2 4 6 10 22 22 22 20 18
6 2 0 3 4 3 3 2 1 6 4 5 3 7 6 5 6 6 6 5 0 2 2 6 3 3 4 12 5 9 12 6 3 1 2 4 2 2 5 11 20 22 20 21 21
6 4 3 3 2 4 3 3 5 4 3 6 3 5 1 5 5 7 5 6 4 6 7 8 4 3 2 6 5 9 6 4 7 5 4 2 3 5 4 15 13 18 20 20 18
11 7 6 6 4 3 3 5 3 2 5 2 3 2 2 6 3 7 3 3 4 3 3 4 8 3 6 2 6 4 4 3 5 4 10 6 3 5 4 14 15 15 17 17 16
13 11 6 5 5 5 4 3 7 7 3 2 2 4 4 2 0 5 2 1 2 3 3 2 6 4 3 2 2 7 5 3 5 2 3 4 6 5 12 19 17 18 16 18 18
17 6 5 3 4 6 4 4 2 2 2 3 4 2 2 4 4 5 2 3 2 3 3 3 6 2 6 2 3 4 2 5 3 6 6 6 5 4 22 25 20 20 17 16 15
13 2 2 5 5 4 3 5 4 4 1 3 4 2 3 2 2 1 3 3 2 3 4 3 2 7 3 1 4 5 5 3 1 3 3 5 5 3 19 17 19 17 16 15 14
6 2 2 6 3 2 1 2 2 2 1 2 2 3 5 5 2 2 4 6 3 4 3 4 4 5 8 4 3 4 2 2 1 5 3 4 4 5 17 13 14 15 14 14 13
3 2 1 1 3 3 1 3 3 4 3 4 4 3 2 5 1 4 3 3 4 3 4 3 2 4 8 4 2 2 4 1 3 3 3 5 5 8 16 14 15 14 14 13 14
4 3 1 2 2 4 5 4 4 1 3 3 2 3 3 1 2 3 3 2 1 3 2 3 3 6 6 7 1 5 8 3 3 1 6 5 16 15 16 20 18 17 14 13 13
1 2 2 3 4 4 4 5 4 4 3 4 2 8 6 4 0 4 4 3 1 2 2 3 4 2 6 11 4 6 7 6 2 5 1 11 12 15 10 15 18 13 15 15 15
4 4 1 3 3 6 5 6 10 5 8 5 5 6 7 6 7 7 4 4 4 1 2 1 3 1 5 5 5 5 5 6 2 3 5 6 3 9 13 7 12 15 17 17 16
4 3 3 8 5 3 6 6 8 8 7 2 8 4 8 12 5 3 2 1 3 4 3 2 2 3 5 5 5 5 7 4 3 4 4 1 4 6 13 12 14 13 11 12 13
Wind_Direction
9 4 0 359 358 359 353 358 356 353 350 348 350 355 356 18 47 46 40 4 2 352 356 0 14 16 56 46 26 81 70 224 250 195 286 356 8 290 299 267 275 266 256 274 294
357 355 355 356 352 347 346 349 348 345 343 342 344 350 351 356 45 46 16 9 0 2 7 10 353 356 49 16 20 68 113 237 254 315 291 295 284 292 315 286 281 285 269 280 298
356 353 349 345 344 342 339 340 339 337 334 337 341 346 350 24 67 352 360 359 3 5 9 10 0 26 49 11 1 336 211 143 274 285 6 289 289 227 279 262 248 267 288 296 302
356 353 348 349 351 344 335 334 334 335 334 337 342 347 26 58 61 345 342 345 353 356 22 29 14 33 48 21 341 347 297 338 291 315 321 293 274 277 228 256 278 256 269 285 292
353 353 358 349 343 342 338 340 342 341 340 338 340 351 62 51 52 344 341 339 345 6 27 38 41 39 27 338 331 197 299 311 291 293 283 276 265 259 266 269 274 268 265 263 274
351 347 350 347 345 342 337 334 336 337 339 348 354 38 77 74 334 353 353 7 9 10 13 38 33 258 99 303 325 308 285 290 284 291 277 282 274 285 278 294 287 262 263 261 259
348 6 353 354 349 345 343 337 338 343 4 17 27 45 57 149 341 341 6 18 6 349 339 359 83 64 299 333 327 281 307 311 304 273 281 328 274 230 261 280 270 276 282 276 262
356 357 1 356 350 349 342 337 346 2 40 26 27 26 75 358 349 5 5 0 360 23 328 13 86 101 43 314 343 347 339 351 271 310 276 100 282 276 259 301 295 297 281 284 285
351 356 357 355 353 350 344 359 30 12 18 13 14 40 35 343 358 356 352 335 333 356 49 77 68 78 15 21 9 9 298 300 311 223 270 195 285 279 306 301 289 291 294 288 288
352 354 358 353 354 351 352 39 62 39 1 354 30 41 16 312 326 327 346 340 340 345 27 33 42 53 30 45 315 297 311 277 288 289 273 284 275 281 281 268 278 308 328 317 291
350 350 355 353 355 357 1 299 16 354 41 104 285 237 304 328 338 342 340 329 6 51 27 10 48 310 255 196 239 268 280 289 288 284 286 281 281 289 289 284 27 346 336 337 334
346 348 351 350 352 5 24 65 85 252 42 45 307 296 299 339 325 320 356 40 54 26 343 17 221 252 278 270 250 256 283 293 289 274 306 294 295 290 328 95 75 353 340 340 330
335 343 344 347 349 8 56 65 39 46 82 335 359 354 310 360 317 292 10 61 92 35 36 283 287 316 280 299 271 268 287 282 289 312 291 289 295 100 2 81 1 1 348 336 331
309 343 341 347 11 16 34 26 12 106 71 302 343 347 337 350 306 303 347 42 33 342 344 251 285 319 316 292 258 312 255 298 298 320 307 50 289 310 336 346 360 351 343 334 333
275 331 347 9 2 41 343 350 42 46 15 294 310 315 339 61 303 22 18 40 341 292 76 258 329 1 321 277 25 257 306 304 296 245 296 328 261 279 4 346 344 340 337 334 333
243 267 302 24 22 16 342 40 8 42 268 337 312 350 16 7 355 310 9 36 283 344 223 254 306 235 240 298 269 323 311 352 15 102 12 263 2 352 16 336 331 333 331 329 329
216 201 138 65 64 353 340 42 25 116 354 305 332 11 92 325 346 10 16 16 37 19 10 328 278 296 273 314 334 7 6 342 2 3 254 287 318 243 194 358 337 324 325 326 325
187 174 124 97 86 29 347 45 68 227 233 334 347 335 68 360 13 339 32 46 55 85 67 30 331 14 343 91 274 338 87 113 302 317 302 352 263 280 194 352 337 329 327 322 324
166 138 102 70 86 55 71 64 209 202 172 163 6 50 318 9 172 15 3 188 193 147 135 359 277 301 208 301 105 307 25 217 263 183 6 287 292 310 351 335 339 342 335 331 332
144 122 83 86 93 82 74 243 249 265 128 114 172 143 214 295 0 51 356 244 124 165 147 206 298 251 291 353 343 137 308 354 1 329 310 292 292 266 342 346 342 341 340 333 329
122 72 97 132 102 61 166 225 236 232 208 159 187 170 213 219 181 262 251 275 187 149 135 129 137 288 349 356 204 350 353 343 166 263 303 304 291 297 356 341 334 335 335 333 337
125 152 165 165 78 94 205 224 233 187 257 214 135 145 180 169 202 248 239 219 202 159 181 195 184 277 244 263 147 146 257 257 291 301 259 258 290 336 2 338 334 334 335 336 347
99 107 125 334 173 198 116 275 242 159 221 193 198 211 171 178 39 212 236 251 201 162 169 158 310 330 346 7 23 46 300 27 274 279 273 320 307 356 348 349 348 344 346 349 351
130 125 46 17 335 144 144 232 227 205 213 194 164 141 160 215 212 263 256 264 248 182 132 189 213 180 208 220 199 315 310 342 69 39 310 280 316 333 353 352 353 352 354 354 358
158 141 164 175 230 154 175 166 150 209 224 180 267 218 182 180 138 227 235 285 120 351 88 117 214 280 251 264 219 241 258 304 79 243 312 314 324 343 357 353 347 351 357 1 5
138 144 200 130 133 138 191 218 197 174 159 213 218 209 187 185 188 196 164 218 208 327 115 72 265 77 293 322 260 266 237 268 138 279 256 289 300 337 334 349 3 352 350 360 2
133 115 138 152 149 168 201 212 206 141 214 178 203 144 204 238 197 159 188 130 166 150 148 94 120 53 273 343 335 323 222 214 221 192 211 352 253 316 330 349 359 355 356 355 360